TimeCST,TemperatureF,Dew PointF,Humidity,Sea Level PressureIn,VisibilityMPH,Wind Direction,Wind SpeedMPH,Gust SpeedMPH,PrecipitationIn,Events,Conditions,WindDirDegrees,DateUTC
12:56 AM,29.1,25.2,85,30.53,10.0,South,4.6,-,N/A,,Clear,190,2012-11-14 06:56:00
1:56 AM,28.0,25.2,89,30.54,10.0,South,6.9,-,N/A,,Clear,170,2012-11-14 07:56:00
2:56 AM,29.1,25.2,85,30.53,10.0,SSE,8.1,-,N/A,,Clear,150,2012-11-14 08:56:00
3:56 AM,29.1,24.1,81,30.53,10.0,SSE,6.9,-,N/A,,Clear,150,2012-11-14 09:56:00
4:56 AM,28.0,24.1,85,30.54,10.0,SSE,8.1,-,N/A,,Clear,160,2012-11-14 10:56:00
5:56 AM,28.0,24.1,85,30.55,10.0,South,6.9,-,N/A,,Clear,170,2012-11-14 11:56:00
6:56 AM,28.0,24.1,85,30.56,10.0,SSE,6.9,-,N/A,,Clear,160,2012-11-14 12:56:00
8:56 AM,34.0,25.2,70,30.56,10.0,South,12.7,-,N/A,,Clear,170,2012-11-14 14:56:00
9:56 AM,37.9,26.1,62,30.56,10.0,South,10.4,-,N/A,,Clear,170,2012-11-14 15:56:00
10:56 AM,39.9,25.2,56,30.54,10.0,South,11.5,-,N/A,,Clear,190,2012-11-14 16:56:00
11:56 AM,41.0,25.2,53,30.51,10.0,SSE,9.2,-,N/A,,Clear,160,2012-11-14 17:56:00
12:56 PM,43.0,26.1,51,30.49,10.0,South,9.2,-,N/A,,Clear,180,2012-11-14 18:56:00
1:56 PM,43.9,26.1,50,30.47,10.0,SE,9.2,-,N/A,,Clear,140,2012-11-14 19:56:00
2:56 PM,43.9,26.1,50,30.46,10.0,South,8.1,-,N/A,,Clear,190,2012-11-14 20:56:00
3:56 PM,41.0,27.1,58,30.45,10.0,SSE,6.9,-,N/A,,Clear,150,2012-11-14 21:56:00
4:56 PM,38.8,27.1,63,30.44,10.0,SSE,4.6,-,N/A,,Clear,150,2012-11-14 22:56:00
5:56 PM,36.9,27.1,68,30.46,10.0,SSE,4.6,-,N/A,,Clear,150,2012-11-14 23:56:00
6:56 PM,34.9,27.1,73,30.46,10.0,SSE,6.9,-,N/A,,Clear,160,2012-11-15 00:56:00
7:56 PM,30.0,26.1,85,30.45,10.0,SE,5.8,-,N/A,,Clear,140,2012-11-15 01:56:00
8:56 PM,32.0,25.2,76,30.44,10.0,SE,6.9,-,N/A,,Clear,140,2012-11-15 02:56:00
9:56 PM,30.0,24.1,79,30.43,10.0,SE,6.9,-,N/A,,Clear,130,2012-11-15 03:56:00
10:56 PM,31.1,25.2,79,30.43,10.0,SSE,5.8,-,N/A,,Clear,160,2012-11-15 04:56:00
11:56 PM,29.1,25.2,85,30.43,10.0,SSE,6.9,-,N/A,,Clear,150,2012-11-15 05:56:00